Darstellungsparameter: Aktuell verwendete Einstellungen:
Skalierung der Graphiken ... ?
xyx+y,   Skalierungsfaktor:      Skalierung: Modus: x, Faktor: 1
Darstellungszeitraum ... ?
Vom - - bis: - -   Zeitraum: 11.08.2008 - 12.08.2008
Min/Max/Avg-Anzeige ... ?
Zeige MMA aktuell
Zeige MMA Monat
Zeige MMA alles
Zeige --A aktuell
Zeige --A Monat
Zeige --A alles
Keine MMA-Anzeige
MMA:
Average (ber die Originaldaten)
MMA-Basis: 17.04.2019 - 19.05.2019
Quicknavigation für Darstellung... ?
Tage:      1T, 2T, 3T, 5T -1T -2T -3T -5T +1T +2T +3T +5T
Wochen: 1W, 2W, 3W -1W -2W -3W +1W +2W +3W
Monate: 1M, 3M, 6M -1M -3M -6M +1M +3M +6M
Jahre:    1J, 3J, 5J, 10J -1J -3J -5J -10J +1J +3J +5J +10J
Nutze für die Darstellung ... ?
Originaldaten oder Mittelwerte auf ...
Stundenbasis Tagesbasis Wochenbasis
Monatsbasis Jahresbasis      Datenbasis: Original-Daten
Darstellen als:
Statistik (Auto) Statistik J:M      Darstellung:
Zur Graphik,    zurück zur Übersicht aller Sensoren.
 
Tabellarische Datenbersicht: ?
 
Sensor: Nr:Datum:Temp:Abs-Feuchte:Windchill:Wind:
Aussen-T/F 1 11-08-2008 00:11:03 18.1 C 9.12 g/m*3 18.1 C 0 km/h
2 11-08-2008 00:23:03 18.1 C 9.27 g/m*3 18.1 C 0 km/h
3 11-08-2008 00:35:03 18.1 C 9.27 g/m*3 18.1 C 0 km/h
4 11-08-2008 00:47:03 18.1 C 9.27 g/m*3 18.1 C 0 km/h
5 11-08-2008 00:59:03 18.2 C 9.33 g/m*3 18.2 C 0 km/h
6 11-08-2008 01:11:03 18.4 C 9.28 g/m*3 18.4 C 0 km/h
7 11-08-2008 01:23:03 18.6 C 9.39 g/m*3 18.6 C 0 km/h
8 11-08-2008 01:35:03 18.7 C 9.45 g/m*3 18.7 C 0 km/h
9 11-08-2008 01:47:03 18.5 C 9.65 g/m*3 18.5 C 0 km/h
10 11-08-2008 01:59:03 18.3 C 9.69 g/m*3 18.3 C 0 km/h
11 11-08-2008 02:11:03 18 C 9.68 g/m*3 18 C 0 km/h
12 11-08-2008 02:23:03 17.6 C 9.9 g/m*3 17.6 C 0 km/h
13 11-08-2008 02:35:03 17.3 C 10.02 g/m*3 17.3 C 0 km/h
14 11-08-2008 02:47:03 17.4 C 10.23 g/m*3 17.4 C 0 km/h
15 11-08-2008 02:59:03 17.5 C 10.44 g/m*3 17.5 C 0 km/h
16 11-08-2008 03:11:03 17.5 C 10.59 g/m*3 17.5 C 0 km/h
17 11-08-2008 03:23:03 17.5 C 10.59 g/m*3 17.5 C 0 km/h
18 11-08-2008 03:35:04 17.7 C 10.56 g/m*3 17.7 C 0 km/h
19 11-08-2008 03:47:04 17.7 C 10.56 g/m*3 17.7 C 0 km/h
20 11-08-2008 03:59:04 17.5 C 10.44 g/m*3 17.5 C 0 km/h
21 11-08-2008 04:11:04 17.4 C 10.37 g/m*3 17.4 C 0 km/h
22 11-08-2008 04:23:04 17.1 C 10.19 g/m*3 17.1 C 0 km/h
23 11-08-2008 04:35:04 16.8 C 10.15 g/m*3 16.8 C 0 km/h
24 11-08-2008 04:47:04 16.6 C 10.03 g/m*3 16.6 C 0 km/h
25 11-08-2008 04:59:04 16 C 9.67 g/m*3 16 C 0 km/h
Sensor: Nr:Datum:Temp:Abs-Feuchte:Windchill:Wind:
Aussen-T/F 26 11-08-2008 05:11:04 15.7 C 9.63 g/m*3 15.7 C 0 km/h
27 11-08-2008 05:23:04 15.6 C 9.71 g/m*3 15.6 C 0 km/h
28 11-08-2008 05:35:04 15.9 C 9.62 g/m*3 15.9 C 0 km/h
29 11-08-2008 05:47:04 15.8 C 9.69 g/m*3 15.8 C 0 km/h
30 11-08-2008 05:59:04 15.4 C 9.59 g/m*3 15.4 C 0 km/h
31 11-08-2008 06:11:02 15.1 C 9.68 g/m*3 15.1 C 0 km/h
32 11-08-2008 06:23:02 14.8 C 9.88 g/m*3 14.8 C 0 km/h
33 11-08-2008 06:35:02 15 C 10.13 g/m*3 15 C 0 km/h
34 11-08-2008 06:47:02 15.2 C 10.12 g/m*3 15.2 C 0 km/h
35 11-08-2008 06:59:02 15 C 10 g/m*3 15 C 0 km/h
36 11-08-2008 07:11:02 14.9 C 10.2 g/m*3 14.9 C 0 km/h
37 11-08-2008 07:23:02 14.9 C 10.2 g/m*3 14.9 C 0 km/h
38 11-08-2008 07:35:02 15 C 10.26 g/m*3 15 C 0 km/h
39 11-08-2008 07:47:02 15.4 C 10.51 g/m*3 15.4 C 0 km/h
40 11-08-2008 07:59:02 15.6 C 10.37 g/m*3 15.6 C 0 km/h
41 11-08-2008 08:11:01 15.5 C 10.31 g/m*3 15.5 C 0 km/h
42 11-08-2008 08:23:02 15.9 C 10.56 g/m*3 15.9 C 0 km/h
43 11-08-2008 08:35:01 16.3 C 10.41 g/m*3 16.3 C 0 km/h
44 11-08-2008 08:47:02 16.7 C 10.37 g/m*3 16.7 C 0 km/h
45 11-08-2008 08:59:02 17.5 C 10.14 g/m*3 17.5 C 0 km/h
46 11-08-2008 09:11:01 18.2 C 10.41 g/m*3 18.2 C 0 km/h
47 11-08-2008 09:23:02 19.1 C 10.16 g/m*3 19.1 C 0 km/h
48 11-08-2008 09:35:02 19.6 C 10.13 g/m*3 19.6 C 0 km/h
49 11-08-2008 09:47:02 20.2 C 9.97 g/m*3 20.2 C 0 km/h
50 11-08-2008 09:59:03 20.8 C 9.78 g/m*3 20.8 C 0 km/h
Sensor: Nr:Datum:Temp:Abs-Feuchte:Windchill:Wind:
Aussen-T/F 51 11-08-2008 10:11:02 20.9 C 9.47 g/m*3 20.9 C 0 km/h
52 11-08-2008 10:23:02 21 C 9.53 g/m*3 21 C 0 km/h
53 11-08-2008 10:35:01 21.3 C 9.51 g/m*3 21.3 C 0 km/h
54 11-08-2008 10:47:02 21.6 C 8.72 g/m*3 21.6 C 0 km/h
55 11-08-2008 10:59:02 21.9 C 8.1 g/m*3 21.9 C 0 km/h
56 11-08-2008 11:11:01 22.4 C 8.14 g/m*3 22.4 C 0 km/h
57 11-08-2008 11:23:02 22.5 C 7.99 g/m*3 22.5 C 0 km/h
58 11-08-2008 11:35:01 22.1 C 8.2 g/m*3 22.1 C 0 km/h
59 11-08-2008 11:47:01 22.6 C 8.84 g/m*3 22.6 C 0 km/h
60 11-08-2008 11:59:01 22 C 8.73 g/m*3 22 C 0 km/h
61 11-08-2008 12:11:02 22.7 C 8.49 g/m*3 22.7 C 0 km/h
62 11-08-2008 12:23:01 23.4 C 8.41 g/m*3 23.4 C 0 km/h
63 11-08-2008 12:35:02 23.7 C 7.91 g/m*3 23.7 C 0 km/h
64 11-08-2008 12:47:02 24.2 C 7.26 g/m*3 24.2 C 0 km/h
65 11-08-2008 12:59:02 24.1 C 7 g/m*3 24.1 C 0 km/h
66 11-08-2008 13:11:03 25.2 C 7.22 g/m*3 25.2 C 0 km/h
67 11-08-2008 13:23:02 25.9 C 6.78 g/m*3 25.9 C 0 km/h
68 11-08-2008 13:35:02 26 C 6.33 g/m*3 26 C 0 km/h
69 11-08-2008 13:47:02 25.8 C 6.5 g/m*3 25.8 C 0 km/h
70 11-08-2008 13:59:02 26.4 C 6.22 g/m*3 26.4 C 0 km/h
71 11-08-2008 14:11:02 26.2 C 5.91 g/m*3 26.2 C 0 km/h
72 11-08-2008 14:23:02 26.5 C 6.26 g/m*3 26.5 C 0 km/h
73 11-08-2008 14:35:02 27.1 C 6.47 g/m*3 27.1 C 0 km/h
74 11-08-2008 14:47:01 27.2 C 6.25 g/m*3 27.2 C 0 km/h
75 11-08-2008 14:59:01 27 C 5.66 g/m*3 27 C 0 km/h
Sensor: Nr:Datum:Temp:Abs-Feuchte:Windchill:Wind:
Aussen-T/F 76 11-08-2008 15:11:02 27.8 C 6.72 g/m*3 27.8 C 0 km/h
77 11-08-2008 15:23:01 27.4 C 5.26 g/m*3 27.4 C 0 km/h
78 11-08-2008 15:35:02 26.7 C 5.32 g/m*3 26.7 C 0 km/h
79 11-08-2008 15:47:02 26.7 C 5.82 g/m*3 26.7 C 0 km/h
80 11-08-2008 15:59:02 26.8 C 5.85 g/m*3 26.8 C 0 km/h
81 11-08-2008 16:11:01 26.8 C 5.85 g/m*3 26.8 C 0 km/h
82 11-08-2008 16:23:02 26.2 C 5.91 g/m*3 26.2 C 0 km/h
83 11-08-2008 16:35:02 26.2 C 6.15 g/m*3 26.2 C 0 km/h
84 11-08-2008 16:47:02 25.7 C 6.46 g/m*3 25.7 C 0 km/h
85 11-08-2008 16:59:02 25 C 6.22 g/m*3 25 C 0 km/h
86 11-08-2008 17:11:01 25 C 6.22 g/m*3 25 C 0 km/h
87 11-08-2008 17:23:02 24.5 C 6.49 g/m*3 24.5 C 0 km/h
88 11-08-2008 17:35:01 24.3 C 6.86 g/m*3 24.3 C 0 km/h
89 11-08-2008 17:47:02 23.9 C 6.71 g/m*3 23.9 C 0 km/h
90 11-08-2008 17:59:03 23.9 C 6.49 g/m*3 23.9 C 0 km/h
91 11-08-2008 18:11:02 23.9 C 6.92 g/m*3 23.9 C 0 km/h
92 11-08-2008 18:23:02 22.9 C 7.97 g/m*3 22.9 C 0 km/h
93 11-08-2008 18:35:02 23.3 C 7.95 g/m*3 23.3 C 0 km/h
94 11-08-2008 18:47:02 23.2 C 8.11 g/m*3 23.2 C 0 km/h
95 11-08-2008 18:59:02 22.6 C 8.64 g/m*3 22.6 C 0 km/h
96 11-08-2008 19:11:02 22.7 C 8.28 g/m*3 22.7 C 0 km/h
97 11-08-2008 19:23:02 22.9 C 8.79 g/m*3 22.9 C 0 km/h
98 11-08-2008 19:35:01 22.9 C 8.79 g/m*3 22.9 C 0 km/h
99 11-08-2008 19:47:02 22.5 C 9.19 g/m*3 22.5 C 0 km/h
100 11-08-2008 19:59:02 22.1 C 8.98 g/m*3 22.1 C 0 km/h
Sensor: Nr:Datum:Temp:Abs-Feuchte:Windchill:Wind:
Aussen-T/F 101 11-08-2008 20:11:02 21.9 C 9.46 g/m*3 21.9 C 0 km/h
102 11-08-2008 20:23:01 21.5 C 9.43 g/m*3 21.5 C 0 km/h
103 11-08-2008 20:35:02 21.2 C 9.45 g/m*3 21.2 C 0 km/h
104 11-08-2008 20:47:02 21.1 C 9.4 g/m*3 21.1 C 0 km/h
105 11-08-2008 20:59:02 20.6 C 9.84 g/m*3 20.6 C 0 km/h
106 11-08-2008 21:11:02 20.1 C 9.91 g/m*3 20.1 C 0 km/h
107 11-08-2008 21:23:02 19.9 C 10.31 g/m*3 19.9 C 0 km/h
108 11-08-2008 21:35:02 19.7 C 10.19 g/m*3 19.7 C 0 km/h
109 11-08-2008 21:47:02 19.9 C 10.14 g/m*3 19.9 C 0 km/h
110 11-08-2008 21:59:02 20.1 C 10.08 g/m*3 20.1 C 0 km/h
111 11-08-2008 22:11:03 19.8 C 10.25 g/m*3 19.8 C 0 km/h
112 11-08-2008 22:24:33 19.9 C 10.65 g/m*3 19.9 C 0 km/h
113 11-08-2008 22:36:33 20 C 10.71 g/m*3 20 C 0 km/h
114 11-08-2008 22:48:33 20 C 10.89 g/m*3 20 C 0 km/h
115 11-08-2008 23:00:33 19.8 C 10.93 g/m*3 19.8 C 0 km/h
116 11-08-2008 23:12:33 19.9 C 11.17 g/m*3 19.9 C 0 km/h
117 11-08-2008 23:24:34 19.7 C 11.04 g/m*3 19.7 C 0 km/h
118 11-08-2008 23:36:34 19.5 C 11.24 g/m*3 19.5 C 0 km/h
119 11-08-2008 23:48:34 19.1 C 11.64 g/m*3 19.1 C 0 km/h
120 12-08-2008 00:00:34 18.6 C 11.78 g/m*3 18.6 C 0 km/h
121 12-08-2008 00:12:34 18.3 C 11.88 g/m*3 18.3 C 0 km/h
122 12-08-2008 00:24:34 18.2 C 12.12 g/m*3 18.2 C 0 km/h
123 12-08-2008 00:36:34 17.9 C 12.37 g/m*3 17.9 C 0 km/h
124 12-08-2008 00:48:34 17.7 C 12.52 g/m*3 17.7 C 0 km/h
125 12-08-2008 01:00:34 17.3 C 12.37 g/m*3 17.3 C 0 km/h
Sensor: Nr:Datum:Temp:Abs-Feuchte:Windchill:Wind:
Aussen-T/F 126 12-08-2008 01:12:34 17 C 12.3 g/m*3 17 C 0 km/h
127 12-08-2008 01:24:34 17.2 C 12.59 g/m*3 17.2 C 0 km/h
128 12-08-2008 01:36:34 17.5 C 12.82 g/m*3 17.5 C 0 km/h
129 12-08-2008 01:48:34 17.2 C 12.59 g/m*3 17.2 C 0 km/h
130 12-08-2008 02:00:34 17.1 C 12.66 g/m*3 17.1 C 0 km/h
131 12-08-2008 02:12:34 17 C 12.59 g/m*3 17 C 0 km/h
132 12-08-2008 02:24:34 16.8 C 12.58 g/m*3 16.8 C 0 km/h
133 12-08-2008 02:36:34 16.8 C 12.72 g/m*3 16.8 C 0 km/h
134 12-08-2008 02:48:34 16.6 C 12.57 g/m*3 16.6 C 0 km/h
135 12-08-2008 03:00:34 16.7 C 12.65 g/m*3 16.7 C 0 km/h
136 12-08-2008 03:12:34 16.8 C 12.72 g/m*3 16.8 C 0 km/h
137 12-08-2008 03:24:34 16.9 C 12.8 g/m*3 16.9 C 0 km/h
138 12-08-2008 03:36:35 16.8 C 12.58 g/m*3 16.8 C 0 km/h
139 12-08-2008 03:48:35 16.4 C 12.28 g/m*3 16.4 C 0 km/h
140 12-08-2008 04:00:35 16.2 C 12.14 g/m*3 16.2 C 0 km/h
141 12-08-2008 04:12:35 16 C 11.85 g/m*3 16 C 0 km/h
142 12-08-2008 04:24:35 15.8 C 11.85 g/m*3 15.8 C 0 km/h
143 12-08-2008 04:36:35 16 C 11.99 g/m*3 16 C 0 km/h
144 12-08-2008 04:48:35 15.8 C 11.98 g/m*3 15.8 C 0 km/h
145 12-08-2008 05:00:35 16 C 11.99 g/m*3 16 C 0 km/h
146 12-08-2008 05:12:35 16.3 C 12.21 g/m*3 16.3 C 0 km/h
147 12-08-2008 05:24:35 16.2 C 12.14 g/m*3 16.2 C 0 km/h
148 12-08-2008 05:36:35 16.2 C 12 g/m*3 16.2 C 0 km/h
149 12-08-2008 05:48:35 16.2 C 12 g/m*3 16.2 C 0 km/h
150 12-08-2008 06:00:35 16.1 C 11.93 g/m*3 16.1 C 0 km/h
Sensor: Nr:Datum:Temp:Abs-Feuchte:Windchill:Wind:
Aussen-T/F 151 12-08-2008 06:12:35 16 C 11.85 g/m*3 16 C 0 km/h
152 12-08-2008 06:24:35 16 C 11.85 g/m*3 16 C 0 km/h
153 12-08-2008 06:36:35 16.1 C 12.06 g/m*3 16.1 C 0 km/h
154 12-08-2008 06:48:35 16 C 11.85 g/m*3 16 C 0 km/h
155 12-08-2008 07:00:35 16.1 C 12.06 g/m*3 16.1 C 0 km/h
156 12-08-2008 07:12:04 16.1 C 12.06 g/m*3 16.1 C 0 km/h
157 12-08-2008 07:24:03 16.1 C 12.06 g/m*3 16.1 C 0 km/h
158 12-08-2008 07:36:03 16.2 C 12.14 g/m*3 16.2 C 0 km/h
159 12-08-2008 07:48:02 16.2 C 12.27 g/m*3 16.2 C 0 km/h
160 12-08-2008 08:00:02 16.2 C 12.27 g/m*3 16.2 C 0 km/h
161 12-08-2008 08:12:02 16.6 C 12.71 g/m*3 16.6 C 0 km/h
162 12-08-2008 08:24:02 16.8 C 12.87 g/m*3 16.8 C 0 km/h
163 12-08-2008 08:36:02 16.8 C 12.72 g/m*3 16.8 C 0 km/h
164 12-08-2008 08:48:02 16.9 C 12.8 g/m*3 16.9 C 0 km/h
165 12-08-2008 09:00:02 16.6 C 12.57 g/m*3 16.6 C 0 km/h
166 12-08-2008 09:12:02 16.6 C 12.71 g/m*3 16.6 C 0 km/h
167 12-08-2008 09:24:02 16.9 C 12.94 g/m*3 16.9 C 0 km/h
168 12-08-2008 09:36:03 17 C 12.88 g/m*3 17 C 0 km/h
169 12-08-2008 09:48:02 17.2 C 13.03 g/m*3 17.2 C 0 km/h
170 12-08-2008 10:00:02 17.2 C 13.03 g/m*3 17.2 C 0 km/h
171 12-08-2008 10:12:02 17.3 C 12.96 g/m*3 17.3 C 0 km/h
172 12-08-2008 10:24:02 17.4 C 13.04 g/m*3 17.4 C 0 km/h
173 12-08-2008 10:36:02 17.6 C 13.2 g/m*3 17.6 C 0 km/h
174 12-08-2008 10:48:02 17.6 C 13.35 g/m*3 17.6 C 0 km/h
175 12-08-2008 11:00:02 17.9 C 13.59 g/m*3 17.9 C 0 km/h
Sensor: Nr:Datum:Temp:Abs-Feuchte:Windchill:Wind:
Aussen-T/F 176 12-08-2008 11:12:02 18 C 13.52 g/m*3 18 C 0 km/h
177 12-08-2008 11:24:02 18.2 C 13.68 g/m*3 18.2 C 0 km/h
178 12-08-2008 11:36:02 18.4 C 13.84 g/m*3 18.4 C 0 km/h
179 12-08-2008 11:48:02 18.9 C 14.26 g/m*3 18.9 C 0 km/h
180 12-08-2008 12:00:02 19.5 C 14.27 g/m*3 19.5 C 0 km/h
181 12-08-2008 12:12:01 19.7 C 14.09 g/m*3 19.7 C 0 km/h
182 12-08-2008 12:24:02 20.5 C 14.41 g/m*3 20.5 C 0 km/h
183 12-08-2008 12:36:01 21.1 C 14.19 g/m*3 21.1 C 0 km/h
184 12-08-2008 12:48:01 21.9 C 14.09 g/m*3 21.9 C 0 km/h
185 12-08-2008 13:00:01 22.4 C 13.7 g/m*3 22.4 C 0 km/h
186 12-08-2008 13:12:02 22.1 C 13.27 g/m*3 22.1 C 0 km/h
187 12-08-2008 13:24:01 22.4 C 13.31 g/m*3 22.4 C 0 km/h
188 12-08-2008 13:36:02 21.8 C 13.24 g/m*3 21.8 C 0 km/h
189 12-08-2008 13:48:02 21.3 C 13.42 g/m*3 21.3 C 0 km/h
190 12-08-2008 14:00:02 20.7 C 13.68 g/m*3 20.7 C 0 km/h
191 12-08-2008 14:12:02 21.2 C 13.9 g/m*3 21.2 C 0 km/h
192 12-08-2008 14:24:02 22.2 C 13.55 g/m*3 22.2 C 0 km/h
193 12-08-2008 14:36:02 23.4 C 13.46 g/m*3 23.4 C 0 km/h
194 12-08-2008 14:48:02 23.5 C 13.11 g/m*3 23.5 C 0 km/h
195 12-08-2008 15:00:02 22.8 C 12.4 g/m*3 22.8 C 0 km/h
196 12-08-2008 15:12:02 22.9 C 12.47 g/m*3 22.9 C 0 km/h
197 12-08-2008 15:24:02 22.2 C 12.17 g/m*3 22.2 C 0 km/h
198 12-08-2008 15:36:03 21.4 C 12.75 g/m*3 21.4 C 0 km/h
199 12-08-2008 15:48:02 20.6 C 13.07 g/m*3 20.6 C 0 km/h
200 12-08-2008 16:00:02 19.7 C 13.92 g/m*3 19.7 C 0 km/h
Sensor: Nr:Datum:Temp:Abs-Feuchte:Windchill:Wind:
Aussen-T/F 201 12-08-2008 16:12:03 19.9 C 14.43 g/m*3 19.9 C 0 km/h
202 12-08-2008 16:24:02 20.9 C 14.93 g/m*3 20.9 C 0 km/h
203 12-08-2008 16:36:03 21.5 C 14.9 g/m*3 21.5 C 0 km/h
204 12-08-2008 16:48:02 21.2 C 12.97 g/m*3 21.2 C 0 km/h
205 12-08-2008 17:00:02 21.6 C 12.52 g/m*3 21.6 C 0 km/h
206 12-08-2008 17:12:02 21.5 C 12.45 g/m*3 21.5 C 0 km/h
207 12-08-2008 17:24:02 21.5 C 12.07 g/m*3 21.5 C 0 km/h
208 12-08-2008 17:36:02 21.3 C 12.86 g/m*3 21.3 C 0 km/h
209 12-08-2008 17:48:02 21.4 C 12.37 g/m*3 21.4 C 0 km/h
210 12-08-2008 18:00:02 21.4 C 12 g/m*3 21.4 C 0 km/h
211 12-08-2008 18:12:02 21.3 C 11.93 g/m*3 21.3 C 0 km/h
212 12-08-2008 18:24:02 21.5 C 12.26 g/m*3 21.5 C 0 km/h
213 12-08-2008 18:36:03 21.9 C 12.16 g/m*3 21.9 C 0 km/h
214 12-08-2008 18:48:02 21.8 C 11.32 g/m*3 21.8 C 0 km/h
215 12-08-2008 19:00:02 21.9 C 11.39 g/m*3 21.9 C 0 km/h
216 12-08-2008 19:12:02 22.3 C 11.65 g/m*3 22.3 C 0 km/h
217 12-08-2008 19:24:02 22.6 C 11.05 g/m*3 22.6 C 0 km/h
218 12-08-2008 19:36:02 22.5 C 10.79 g/m*3 22.5 C 0 km/h
219 12-08-2008 19:48:02 22.6 C 10.65 g/m*3 22.6 C 0 km/h
220 12-08-2008 20:00:02 22.5 C 10.39 g/m*3 22.5 C 0 km/h
221 12-08-2008 20:12:01 22.8 C 10.36 g/m*3 22.8 C 0 km/h
222 12-08-2008 20:24:02 22.5 C 10.39 g/m*3 22.5 C 0 km/h
223 12-08-2008 20:36:01 21.8 C 10.55 g/m*3 21.8 C 0 km/h
224 12-08-2008 20:48:01 21.2 C 10.56 g/m*3 21.2 C 0 km/h
225 12-08-2008 21:00:01 20.7 C 10.62 g/m*3 20.7 C 0 km/h
Sensor: Nr:Datum:Temp:Abs-Feuchte:Windchill:Wind:
Aussen-T/F 226 12-08-2008 21:12:02 20.2 C 10.84 g/m*3 20.2 C 0 km/h
227 12-08-2008 21:24:02 20 C 11.06 g/m*3 20 C 0 km/h
228 12-08-2008 21:36:02 19.7 C 11.38 g/m*3 19.7 C 0 km/h
229 12-08-2008 21:48:03 19.4 C 11.68 g/m*3 19.4 C 0 km/h
230 12-08-2008 22:00:03 19.1 C 11.8 g/m*3 19.1 C 0 km/h
231 12-08-2008 22:12:02 19 C 11.57 g/m*3 19 C 0 km/h
232 12-08-2008 22:24:02 18.9 C 11.83 g/m*3 18.9 C 0 km/h
233 12-08-2008 22:36:02 18.6 C 11.62 g/m*3 18.6 C 0 km/h
234 12-08-2008 22:48:02 18.4 C 11.48 g/m*3 18.4 C 0 km/h
235 12-08-2008 23:00:03 18.6 C 11.46 g/m*3 18.6 C 0 km/h
236 12-08-2008 23:12:02 18.9 C 11.18 g/m*3 18.9 C 0 km/h
237 12-08-2008 23:25:03 19.3 C 11.11 g/m*3 19.3 C 0 km/h
238 12-08-2008 23:37:03 16.6 C 9.89 g/m*3 16.6 C 0 km/h
239 12-08-2008 23:49:03 15.6 C 9.97 g/m*3 15.6 C 0 km/h

Legende:
   Min
   Max


Maximal/Minimal-Werte vom 17.04.2019 - 19.05.2019

Sensor Min Max Avg
Temp
(Aussen-T/F)
2.2 °C
13-05-2019  06:50:00
26.6 °C
24-04-2019  17:05:00
11.51 °C

Die Daten stammen von einer Davis Vantage Pro 2 Wetter-Station und werden unter Linux mit der Software wview2wettercgi und aufbereitet. Alle Angaben erfolgen ohne Gewähr für ihre Vollständigkeit oder Richtigkeit.
Kontakt: Rainer Krienke krienke@uni-koblenz.de . Meine Webseiten an der Uni Koblenz oder privat.
Version: $Revision: 0.78 $